Weather History for LGKV - January, 2013

Change the Weather History Date:

Thursday, January 24, 2013

  Actual Average Record
Temperature  
Mean Temperature 48 °F -  
Max Temperature 57 °F 47 °F 60 °F (2007)
Min Temperature 39 °F 34 °F 23 °F (2006)
Degree Days  
Heating Degree Days 17    
Moisture  
Dew Point 44 °F    
Average Humidity 84    
Maximum Humidity 100    
Minimum Humidity 70    
Precipitation  
Precipitation 0.00 in - - ()
Sea Level Pressure  
Sea Level Pressure 29.70 in    
Wind  
Wind Speed 9 mph ()    
Max Wind Speed 23 mph    
Max Gust Speed 37 mph    
Visibility 6.0 miles    
Events Rain , Thunderstorm    
Averages and records for this station are not official NWS values.
T = Trace of Precipitation, MM = Missing Value Source: Averaged Metar Reports

Daily Weather History Graph

Daily Weather History Graph

Search for Another Location

Airport or City:

Trip Planner

Search our weather history database for the weather conditions in past years. The results will help you decide how hot, cold, wet, or windy it might be!

Date:

Astronomy

Jan. 24, 2013 Rise Set
Actual Time 7:38 AM EET 5:28 PM EET
Civil Twilight 7:09 AM EET 5:58 PM EET
Nautical Twilight 6:35 AM EET 6:31 PM EET
Astronomical Twilight 6:03 AM EET 7:04 PM EET
Moon 3:13 PM EET (1/24) 5:22 AM EET (1/24)
Length of Visible Light 10h 49m
Length of Day
9h 50m
Waxing Gibbous, 93% of the Moon is Illuminated
Jan 24
Waxing Gibbous
Jan 27
Full
Feb 3
Last Quarter
Feb 10
New
Feb 17
First Quarter

Hourly Weather History & Observations

Time (EET) Temp. Windchill Dew Point Humidity Pressure Visibility Wind Dir Wind Speed Gust Speed Precip Events Conditions
12:50 AM 44.6 °F 41.4 °F 35.6 °F 71% 29.89 in 6.2 mi NE 5.8 mph - N/A   Partly Cloudy
1:50 AM 42.8 °F 40.1 °F 35.6 °F 76% 29.89 in 6.2 mi NE 4.6 mph - N/A   Partly Cloudy
2:50 AM 41.0 °F 36.4 °F 35.6 °F 81% 29.89 in 6.2 mi East 6.9 mph - N/A   Partly Cloudy
3:50 AM 41.0 °F 37.1 °F 37.4 °F 87% 29.89 in 6.2 mi NE 5.8 mph - N/A   Partly Cloudy
4:50 AM 41.0 °F 36.4 °F 33.8 °F 76% 29.86 in 6.2 mi NE 6.9 mph - N/A   Scattered Clouds
5:20 AM 41.0 °F 36.4 °F 33.8 °F 76% 29.86 in 6.2 mi NE 6.9 mph - N/A   Scattered Clouds
5:50 AM 41.0 °F 36.4 °F 33.8 °F 76% 29.83 in 6.2 mi NE 6.9 mph - N/A   Scattered Clouds
6:50 AM 41.0 °F 36.4 °F 32.0 °F 70% 29.83 in 6.2 mi East 6.9 mph - N/A   Scattered Clouds
7:20 AM 41.0 °F 36.4 °F 32.0 °F 70% 29.83 in 6.2 mi East 6.9 mph - N/A   Scattered Clouds
7:50 AM 39.2 °F 35.0 °F 33.8 °F 81% 29.83 in 6.2 mi East 5.8 mph - N/A   Mostly Cloudy
8:20 AM 39.2 °F 35.0 °F 33.8 °F 81% 29.83 in 6.2 mi East 5.8 mph - N/A   Mostly Cloudy
8:50 AM 41.0 °F 35.8 °F 33.8 °F 76% 29.83 in 6.2 mi NE 8.1 mph - N/A   Mostly Cloudy
9:20 AM 44.6 °F 40.2 °F 35.6 °F 71% 29.83 in 6.2 mi NE 8.1 mph - N/A   Mostly Cloudy
9:50 AM 50.0 °F - 42.8 °F 76% 29.80 in 6.2 mi NE 8.1 mph - N/A   Mostly Cloudy
10:20 AM 50.0 °F - 42.8 °F 76% 29.80 in 6.2 mi NE 8.1 mph - N/A   Mostly Cloudy
10:50 AM 51.8 °F - 42.8 °F 71% 29.80 in 6.2 mi NE 13.8 mph - N/A   Mostly Cloudy
11:20 AM 51.8 °F - 42.8 °F 71% 29.77 in 6.2 mi NE 13.8 mph - N/A   Mostly Cloudy
11:50 AM 53.6 °F - 48.2 °F 82% 29.74 in 6.2 mi NNE 11.5 mph - N/A   Mostly Cloudy
12:20 PM 53.6 °F - 50.0 °F 88% 29.74 in 5.0 mi NNE 10.4 mph - N/A Rain Light Rain
12:50 PM 53.6 °F - 50.0 °F 88% 29.68 in 6.2 mi NNE 11.5 mph - N/A   Mostly Cloudy
1:20 PM 53.6 °F - 50.0 °F 88% 29.68 in 6.2 mi NNE 8.1 mph - N/A   Mostly Cloudy
1:50 PM 55.4 °F - 51.8 °F 88% 29.65 in 6.2 mi NE 6.9 mph - N/A   Mostly Cloudy
2:20 PM 55.4 °F - 51.8 °F 88% 29.65 in 6.2 mi SSE 13.8 mph 25.3 mph N/A   Mostly Cloudy
2:50 PM 55.4 °F - 51.8 °F 88% 29.62 in 6.2 mi SSE 15.0 mph 26.5 mph N/A   Overcast
3:20 PM 55.4 °F - 51.8 °F 88% 29.59 in 6.2 mi SSE 16.1 mph 27.6 mph N/A   Overcast
3:50 PM 55.4 °F - 53.6 °F 94% 29.59 in 6.2 mi South 19.6 mph 31.1 mph N/A   Overcast
4:20 PM 55.4 °F - 53.6 °F 94% 29.59 in 5.0 mi South 23.0 mph 34.5 mph N/A Rain Light Rain
4:50 PM 57.2 °F - 51.8 °F 82% 29.56 in 5.0 mi South 23.0 mph 34.5 mph N/A Rain Light Rain
5:20 PM 57.2 °F - 51.8 °F 82% 29.56 in 3.1 mi South 17.3 mph 28.8 mph N/A Rain Rain
5:50 PM 51.8 °F - 51.8 °F 100% 29.56 in 5.0 mi South 23.0 mph 36.8 mph N/A Rain , Thunderstorm Light Thunderstorms and Rain
6:20 PM 51.8 °F - 51.8 °F 100% 29.56 in 5.0 mi South 20.7 mph - N/A Rain , Thunderstorm Light Thunderstorms and Rain
6:50 PM 51.8 °F - 50.0 °F 94% 29.56 in 6.2 mi South 18.4 mph - N/A Rain Light Rain
7:20 PM 51.8 °F - 50.0 °F 94% 29.56 in 6.2 mi South 17.3 mph - N/A   Overcast
7:50 PM 51.8 °F - 50.0 °F 94% 29.56 in 6.2 mi South 5.8 mph - N/A   Overcast
8:20 PM 51.8 °F - 50.0 °F 94% 29.53 in 6.2 mi SW 10.4 mph - N/A   Overcast
8:50 PM 51.8 °F - 48.2 °F 88% 29.53 in 6.2 mi SW 10.4 mph - N/A   Overcast
9:20 PM 51.8 °F - 48.2 °F 88% 29.53 in 6.2 mi SSW 10.4 mph - N/A   Overcast
9:50 PM 50.0 °F - 46.4 °F 87% 29.53 in 6.2 mi SSW 9.2 mph - N/A   Overcast
10:20 PM 50.0 °F - 46.4 °F 87% 29.56 in 6.2 mi WSW 4.6 mph - N/A   Overcast
10:50 PM 50.0 °F - 48.2 °F 94% 29.56 in 6.2 mi West 4.6 mph - N/A   Mostly Cloudy